Terug naar catalogus

SPIN 2

ActiefWetenschapSSO
NORAD 66690·PAYLOAD·🇱🇺 Luxembourg
Deze satellietnaam is nog niet bevestigd door officiële bronnen.

Gelanceerd Nov 28, 2025 vanaf Vandenberg Space Force Base

Loading…

Volgende Passages (komende 24 uur)

TLE

VersSource: Space-Track

Epoch: Sep 14, 2026, 04:29 UTC

1 66690U 25276AA  26257.18704743  .00003013  00000-0  14432-3 0  9999
2 66690  97.4108 328.9207 0006010  59.8596 300.3234 15.19686271 43927

Volg SPIN 2 in realtime met AllMySat

Download on the App Store